This demonstration page uses our WeatherBlox Daily Observations layout. Learn more.

Left ArrowRight Arrow

Hourly Observations for July 3, 2020

Temp ( °F °C ) Dew Point ( °F °C ) Humidity (%) Winds ( mph kmh ) Pressure ( in mb ) Visibility ( mi km ) Precip ( " mm )
12:54 am 00:54 Clear 77 25 71 21.7 82 82 SSE 3 6 29.98 1015 10 16.0934 0 0
1:54 am 01:54 Mostly Clear 74 23.3 70 21.1 88 88 N 8 13 29.98 1015 10 16.0934 0 0
2:54 am 02:54 Clear 74 23.3 70 21.1 88 88 N 7 11 29.99 1016 10 16.0934 0 0
3:54 am 03:54 Clear 74 23.3 70 21.1 88 88 NE 5 7 29.99 1016 10 16.0934 0 0
4:54 am 04:54 Mostly Clear 75 23.9 70 21.1 84 84 Calm 30.02 1017 10 16.0934 0 0
5:54 am 05:54 Mostly Clear 73 22.8 69 20.6 87 87 NE 5 7 30.02 1017 9 14.48406 0 0
6:54 am 06:54 Mostly Cloudy 74 23.3 70 21.1 88 88 NNW 8 13 30.03 1017 10 16.0934 0 0
7:16 am 07:16 Mostly Cloudy 74 23.3 70 21.1 88 88 N 10 17 30.02 1017 10 16.0934 0 0
7:44 am 07:44 Mostly Cloudy 75 23.9 70 21.1 84 84 ENE 12 19 30 1016 9 14.48406 0 0
7:54 am 07:54 Mostly Sunny 77 25 71 21.7 82 82 NE 9 15 30.02 1017 10 16.0934 0 0
8:54 am 08:54 Sunny 78 25.6 71 21.7 79 79 Calm 30.01 1016 10 16.0934 0 0
9:54 am 09:54 Sunny 80 26.7 72 22.2 76 76 Calm 30.02 1017 10 16.0934 0 0
10:54 am 10:54 Mostly Sunny 81 27.2 73 22.8 77 77 SW 5 7 30.04 1017 10 16.0934 0 0
11:47 am 11:47 Mostly Cloudy 83 28.3 73 22.8 72 72 S 7 11 30.01 1016 10 16.0934 0 0
11:54 am 11:54 Mostly Cloudy 83 28.3 73 22.8 72 72 SW 3 6 30.03 1017 10 16.0934 0 0
12:25 pm 12:25 Partly Cloudy 83 28.3 72 22.2 70 70 S 7 11 30.01 1016 10 16.0934 0 0
12:54 pm 12:54 Partly Cloudy 82 27.8 72 22.2 72 72 S 10 17 30.04 1017 10 16.0934 0 0
1:54 pm 13:54 Sunny 84 28.9 71 21.7 65 65 ESE 5 7 30.04 1017 10 16.0934 0 0
2:54 pm 14:54 Sunny 87 30.6 69 20.6 55 55 E 6 9 30.01 1016 10 16.0934 0 0
3:54 pm 15:54 Sunny 90 32.2 70 21.1 52 52 E 6 9 30.01 1016 10 16.0934 0 0
4:54 pm 16:54 Sunny 88 31.1 70 21.1 55 55 E 8 13 30 1016 10 16.0934 0 0
5:54 pm 17:54 Mostly Sunny 87 30.6 69 20.6 55 55 ESE 8 13 29.99 1016 10 16.0934 0 0
6:54 pm 18:54 Mostly Sunny 86 30 70 21.1 59 59 E 7 11 29.98 1015 10 16.0934 0 0
7:54 pm 19:54 Sunny 85 29.4 68 20 57 57 E 7 11 29.98 1015 10 16.0934 0 0
8:54 pm 20:54 Sunny 83 28.3 69 20.6 63 63 E 8 13 29.99 1016 10 16.0934 0 0
9:54 pm 21:54 Clear 81 27.2 68 20 65 65 E 8 13 29.98 1015 9 14.48406 0 0
10:54 pm 22:54 Clear 78 25.6 69 20.6 74 74 ENE 7 11 30.02 1017 7 11.26538 0 0
11:54 pm 23:54 Clear 77 25 68 20 74 74 NE 3 6 30.04 1017 7 11.26538 0 0

Powered by AerisWeather